Tracking 19575 objects as of 19-Feb-2019
HD Live streaming from Space Station
objects crossing your sky now

SL-8 R/B

Track SL-8 R/B now!
10-day predictions


NORAD ID: 11586
Int'l Code: 1979-090B
Perigee: 955.5 km
Apogee: 993.8 km
Inclination: 82.9 °
Period: 104.4 minutes
Semi major axis: 7345 km
RCS: 5.15 m2 (large)
Launch date: October 16, 1979
Source: Commonwealth of Independent States (former USSR) (CIS)
Launch site: PLESETSK MISSILE AND SPACE COMPLEX (PKMTR)

Note: This is a ROCKET BODY
aabbcc
Your satellite tracking list
Your tracking list is empty




NASA's NSSDC Master Catalog

Two Line Element Set (TLE):
1 11586U 79090B   19049.92063026 +.00000016 +00000-0 +99140-6 0  9993
2 11586 082.9478 336.9084 0026036 301.1061 058.7543 13.78980982958888
Source of the keplerian elements: AFSPC